Location: Buenos Aires
(34.6076°S, 58.4371°W)
Time: 18:41:46
(UTC+00:00)

ISS - Pass Details

Date: 14 October 2025
Orbit: 414 x 421 km, 51.6° (Epoch: 07 November)

Event Time Altitude Azimuth Distance (km) Brightness Sun altitude
Rises 22:52:35 0° 268° (W) 2,376 1.8 -9.8°
Reaches altitude 10° 22:55:29 10° 241° (WSW) 1,515 0.6 -10.4°
Maximum altitude 22:57:21 14° 208° (SSW) 1,299 -0.6 -10.8°
Drops below altitude 10° 22:59:14 10° 174° (S) 1,519 -0.8 -11.1°
Sets 23:02:09 0° 147° (SSE) 2,387 -0.1 -11.7°
